Big Piney, WY

12:56 PM MDT on September 23, 2017 (GMT -0600)
Big Piney-Marbleton

Weather History for KBPI - January, 2014

Change the Weather History Date:

Friday, January 3, 2014

  Actual Average Record
Temperature  
Mean Temperature 16 °F 11 °F  
Max Temperature 36 °F 26 °F 46 °F (2001)
Min Temperature -5 °F -2 °F -25 °F (1983)
Degree Days  
Heating Degree Days 49 54  
Month to date heating degree days 151 162  
Since 1 July heating degree days 4270 4601  
Cooling Degree Days 0 0  
Month to date cooling degree days 0 0  
Year to date cooling degree days 0 0  
Moisture  
Dew Point 7 °F    
Average Humidity 69    
Maximum Humidity 87    
Minimum Humidity 51    
Precipitation  
Precipitation T in 0.01 in 0.02 in (1996)
Month to date precipitation T 0.03  
Year to date precipitation T 0.03  
Sea Level Pressure  
Sea Level Pressure 30.03 in    
Wind  
Wind Speed 11 mph (NNW)    
Max Wind Speed 36 mph    
Max Gust Speed 44 mph    
Visibility 10 miles    
Events      
T = Trace of Precipitation, MM = Missing Value Source: NWS Daily Summary

Daily Weather History Graph

Daily Weather History Graph

Search for Another Location

Airport or City:

Trip Planner

Search our weather history database for the weather conditions in past years. The results will help you decide how hot, cold, wet, or windy it might be!

Date:

Astronomy

Jan. 03, 2014 Rise Set
Actual Time 7:50 AM MST 4:59 PM MST
Civil Twilight 7:18 AM MST 5:31 PM MST
Nautical Twilight 6:43 AM MST 6:07 PM MST
Astronomical Twilight 6:09 AM MST 6:41 PM MST
Moon 9:14 AM MST (1/3) 8:17 PM MST (1/3)
Length of Visible Light 10h 13m
Length of Day
9h 09m
Waxing Crescent, 8% of the Moon is Illuminated
Jan 3
Waxing Crescent
Jan 7
First Quarter
Jan 15
Full
Jan 23
Last Quarter
Jan 30
New

Hourly Weather History & Observations

Time (MST) Temp. Windchill Dew Point Humidity Pressure Visibility Wind Dir Wind Speed Gust Speed Precip Events Conditions
12:53 AM 1.9 °F -7.6 °F -2.0 °F 83% 30.32 in 10.0 mi East 4.6 mph - N/A   Clear
1:53 AM 1.9 °F - -2.0 °F 83% 30.29 in 10.0 mi Calm Calm - N/A   Clear
2:53 AM 1.0 °F -6.7 °F -4.0 °F 79% 30.28 in 10.0 mi ESE 3.5 mph - N/A   Clear
3:53 AM 1.0 °F -11.7 °F -2.0 °F 87% 30.24 in 10.0 mi NW 6.9 mph - N/A   Clear
4:53 AM -0.9 °F -15.3 °F -4.0 °F 87% 30.21 in 10.0 mi East 8.1 mph - N/A   Clear
5:53 AM -2.0 °F -10.1 °F -7.1 °F 79% 30.22 in 10.0 mi ENE 3.5 mph - N/A   Clear
6:53 AM -4.0 °F - -8.0 °F 83% 30.22 in 10.0 mi Calm Calm - N/A   Clear
7:53 AM -4.0 °F -12.4 °F -9.0 °F 79% 30.20 in 10.0 mi Variable 3.5 mph - N/A   Clear
8:08 AM -2.0 °F -15.4 °F -5.1 °F 87% 29.93 in 10.0 mi NNW 6.9 mph - N/A   Mostly Cloudy
8:53 AM 3.9 °F -5.3 °F -0.0 °F 84% 30.16 in 10.0 mi NNW 4.6 mph - N/A   Overcast
9:53 AM 9.0 °F 2.4 °F 5.0 °F 84% 30.11 in 10.0 mi ESE 3.5 mph - N/A   Overcast
10:53 AM 10.9 °F 1.4 °F 7.0 °F 84% 30.04 in 10.0 mi Variable 5.8 mph - N/A   Partly Cloudy
11:53 AM 17.1 °F 10.0 °F 12.0 °F 81% 29.99 in 10.0 mi East 4.6 mph - N/A   Overcast
12:53 PM 30.0 °F 23.2 °F 19.0 °F 64% 29.88 in 10.0 mi Variable 6.9 mph - N/A   Mostly Cloudy
1:18 PM 36.0 °F 22.6 °F 25.0 °F 64% 29.74 in 10.0 mi WNW 32.2 mph 44.9 mph N/A   Clear
1:53 PM 34.0 °F 20.5 °F 25.0 °F 70% 29.84 in 10.0 mi WNW 28.8 mph 39.1 mph N/A   Clear
2:53 PM 34.0 °F 20.8 °F 21.9 °F 61% 29.84 in 10.0 mi WNW 27.6 mph 40.3 mph N/A   Clear
3:53 PM 33.1 °F 19.8 °F 19.0 °F 56% 29.86 in 10.0 mi West 26.5 mph - N/A   Clear
4:53 PM 28.9 °F 15.8 °F 15.1 °F 56% 29.90 in 10.0 mi WNW 20.7 mph - N/A   Clear
5:53 PM 28.9 °F 15.4 °F 16.0 °F 58% 29.90 in 10.0 mi WNW 21.9 mph - N/A   Mostly Cloudy
6:53 PM 28.0 °F 15.7 °F 18.0 °F 66% 29.92 in 10.0 mi NW 17.3 mph - N/A   Overcast
7:53 PM 26.1 °F 15.0 °F 16.0 °F 66% 29.93 in 10.0 mi NW 12.7 mph - N/A   Overcast
8:53 PM 24.1 °F 12.0 °F 10.9 °F 57% 29.91 in 10.0 mi NW 13.8 mph - N/A   Scattered Clouds
9:53 PM 19.9 °F 6.7 °F 5.0 °F 52% 29.91 in 10.0 mi NW 13.8 mph - N/A   Clear
10:53 PM 14.0 °F -0.8 °F 8.1 °F 77% 29.94 in 10.0 mi North 13.8 mph - N/A   Mostly Cloudy
11:53 PM 19.0 °F 8.2 °F 14.0 °F 81% 29.89 in 10.0 mi NNW 9.2 mph - 0.00 in   Overcast